Time,TemperatureF,DewpointF,PressureIn,WindDirection,WindDirectionDegrees,WindSpeedMPH,WindSpeedGustMPH,Humidity,HourlyPrecipIn,Conditions,Clouds,dailyrainin,SoftwareType,DateUTC
2013-04-03 00:07:00,46.1,23.0,30.20,WSW,258,0.0,-999.0,41,-99.99,,,0.00,weatherlink.com 1.10,2013-04-03 04:07:00,
2013-04-03 00:22:00,45.9,24.0,30.21,West,259,0.0,-999.0,43,-99.99,,,0.00,weatherlink.com 1.10,2013-04-03 04:22:00,
2013-04-03 00:37:00,45.6,24.0,30.21,North,355,1.0,-999.0,42,-99.99,,,0.00,weatherlink.com 1.10,2013-04-03 04:37:00,
2013-04-03 00:52:00,45.3,25.0,30.21,North,360,1.0,-999.0,45,-99.99,,,0.00,weatherlink.com 1.10,2013-04-03 04:52:00,
2013-04-03 01:07:00,45.2,23.0,30.21,NNW,337,0.0,-999.0,42,-99.99,,,0.00,weatherlink.com 1.10,2013-04-03 05:07:00,
2013-04-03 01:22:00,45.1,23.0,30.21,NNW,340,0.0,-999.0,42,-99.99,,,0.00,weatherlink.com 1.10,2013-04-03 05:22:00,
2013-04-03 01:37:00,45.1,23.0,30.22,NNW,340,0.0,-999.0,42,-99.99,,,0.00,weatherlink.com 1.10,2013-04-03 05:37:00,
2013-04-03 01:52:00,45.0,23.0,30.22,NW,326,0.0,-999.0,42,-99.99,,,0.00,weatherlink.com 1.10,2013-04-03 05:52:00,
2013-04-03 02:07:00,44.9,23.0,30.21,NNE,18,0.0,-999.0,43,-99.99,,,0.00,weatherlink.com 1.10,2013-04-03 06:07:00,
2013-04-03 02:22:00,44.7,24.0,30.21,NNW,348,0.0,-999.0,44,-99.99,,,0.00,weatherlink.com 1.10,2013-04-03 06:22:00,
2013-04-03 02:37:00,44.6,23.0,30.21,NNW,328,2.0,-999.0,42,-99.99,,,0.00,weatherlink.com 1.10,2013-04-03 06:37:00,
2013-04-03 02:52:00,44.5,23.0,30.20,NW,311,0.0,-999.0,42,-99.99,,,0.00,weatherlink.com 1.10,2013-04-03 06:52:00,
2013-04-03 03:07:00,44.3,24.0,30.20,NE,55,0.0,-999.0,45,-99.99,,,0.00,weatherlink.com 1.10,2013-04-03 07:07:00,
2013-04-03 03:22:00,44.2,22.0,30.20,NE,55,0.0,-999.0,41,-99.99,,,0.00,weatherlink.com 1.10,2013-04-03 07:22:00,
2013-04-03 03:37:00,44.0,24.0,30.21,NE,55,0.0,-999.0,45,-99.99,,,0.00,weatherlink.com 1.10,2013-04-03 07:37:00,
2013-04-03 03:52:00,43.7,22.0,30.20,NE,55,0.0,-999.0,43,-99.99,,,0.00,weatherlink.com 1.10,2013-04-03 07:52:00,
2013-04-03 04:07:00,43.4,22.0,30.21,West,273,0.0,-999.0,43,-99.99,,,0.00,weatherlink.com 1.10,2013-04-03 08:07:00,
2013-04-03 04:22:00,43.2,23.0,30.21,West,273,0.0,-999.0,45,-99.99,,,0.00,weatherlink.com 1.10,2013-04-03 08:22:00,
2013-04-03 04:37:00,42.9,22.0,30.21,WNW,299,0.0,-999.0,43,-99.99,,,0.00,weatherlink.com 1.10,2013-04-03 08:37:00,
2013-04-03 04:52:00,42.7,22.0,30.21,NNE,24,0.0,-999.0,44,-99.99,,,0.00,weatherlink.com 1.10,2013-04-03 08:52:00,
2013-04-03 05:07:00,42.5,21.0,30.20,NNE,21,0.0,-999.0,42,-99.99,,,0.00,weatherlink.com 1.10,2013-04-03 09:07:00,
2013-04-03 05:22:00,42.3,21.0,30.20,NNW,327,0.0,-999.0,43,-99.99,,,0.00,weatherlink.com 1.10,2013-04-03 09:22:00,
2013-04-03 05:37:00,42.1,20.0,30.21,NNW,340,0.0,-999.0,42,-99.99,,,0.00,weatherlink.com 1.10,2013-04-03 09:37:00,
2013-04-03 05:52:00,41.8,21.0,30.22,NW,317,0.0,-999.0,43,-99.99,,,0.00,weatherlink.com 1.10,2013-04-03 09:52:00,
2013-04-03 06:07:00,41.7,21.0,30.23,North,5,0.0,-999.0,43,-99.99,,,0.00,weatherlink.com 1.10,2013-04-03 10:07:00,
2013-04-03 06:22:00,41.4,20.0,30.23,NNW,331,1.0,-999.0,43,-99.99,,,0.00,weatherlink.com 1.10,2013-04-03 10:22:00,
2013-04-03 06:37:00,41.2,20.0,30.24,NNW,334,0.0,-999.0,43,-99.99,,,0.00,weatherlink.com 1.10,2013-04-03 10:37:00,
2013-04-03 06:52:00,41.0,19.0,30.24,WSW,257,0.0,-999.0,42,-99.99,,,0.00,weatherlink.com 1.10,2013-04-03 10:52:00,
2013-04-03 07:07:00,40.7,19.0,30.24,NNW,329,0.0,-999.0,42,-99.99,,,0.00,weatherlink.com 1.10,2013-04-03 11:07:00,
2013-04-03 07:22:00,40.4,19.0,30.26,NNW,327,0.0,-999.0,42,-99.99,,,0.00,weatherlink.com 1.10,2013-04-03 11:22:00,
2013-04-03 07:37:00,40.2,19.0,30.27,NNW,327,0.0,-999.0,42,-99.99,,,0.00,weatherlink.com 1.10,2013-04-03 11:37:00,
2013-04-03 07:52:00,40.1,22.0,30.28,NNW,327,0.0,-999.0,49,-99.99,,,0.00,weatherlink.com 1.10,2013-04-03 11:52:00,
2013-04-03 08:07:00,40.3,22.0,30.29,SE,127,0.0,-999.0,48,-99.99,,,0.00,weatherlink.com 1.10,2013-04-03 12:07:00,
2013-04-03 08:22:00,40.6,21.0,30.30,East,92,1.0,-999.0,45,-99.99,,,0.00,weatherlink.com 1.10,2013-04-03 12:22:00,
2013-04-03 08:37:00,40.7,20.0,30.30,ESE,121,0.0,-999.0,44,-99.99,,,0.00,weatherlink.com 1.10,2013-04-03 12:37:00,
2013-04-03 08:52:00,40.8,19.0,30.30,NNW,331,0.0,-999.0,42,-99.99,,,0.00,weatherlink.com 1.10,2013-04-03 12:52:00,
2013-04-03 09:07:00,41.6,21.0,30.30,North,350,0.0,-999.0,44,-99.99,,,0.00,weatherlink.com 1.10,2013-04-03 13:07:00,
2013-04-03 09:22:00,42.5,21.0,30.29,ESE,108,0.0,-999.0,43,-99.99,,,0.00,weatherlink.com 1.10,2013-04-03 13:22:00,
2013-04-03 09:37:00,43.5,22.0,30.29,North,5,0.0,-999.0,42,-99.99,,,0.00,weatherlink.com 1.10,2013-04-03 13:37:00,
2013-04-03 09:52:00,44.4,21.0,30.29,NNE,28,0.0,-999.0,39,-99.99,,,0.00,weatherlink.com 1.10,2013-04-03 13:52:00,
2013-04-03 10:07:00,45.1,23.0,30.29,East,90,0.0,-999.0,41,-99.99,,,0.00,weatherlink.com 1.10,2013-04-03 14:07:00,
2013-04-03 10:22:00,46.7,22.0,30.29,ESE,123,0.0,-999.0,38,-99.99,,,0.00,weatherlink.com 1.10,2013-04-03 14:22:00,
2013-04-03 10:37:00,47.9,23.0,30.29,SE,128,0.0,-999.0,37,-99.99,,,0.00,weatherlink.com 1.10,2013-04-03 14:37:00,
2013-04-03 10:52:00,48.5,23.0,30.28,East,81,0.0,-999.0,37,-99.99,,,0.00,weatherlink.com 1.10,2013-04-03 14:52:00,
2013-04-03 11:07:00,49.5,25.0,30.28,ENE,71,0.0,-999.0,38,-99.99,,,0.00,weatherlink.com 1.10,2013-04-03 15:07:00,
2013-04-03 11:22:00,50.6,25.0,30.29,East,101,5.0,-999.0,37,-99.99,,,0.00,weatherlink.com 1.10,2013-04-03 15:22:00,
2013-04-03 11:37:00,50.6,25.0,30.29,NE,43,0.0,-999.0,37,-99.99,,,0.00,weatherlink.com 1.10,2013-04-03 15:37:00,
2013-04-03 11:52:00,51.5,23.0,30.29,NNE,27,2.0,-999.0,33,-99.99,,,0.00,weatherlink.com 1.10,2013-04-03 15:52:00,
2013-04-03 12:07:00,53.0,24.0,30.29,ESE,119,0.0,-999.0,32,-99.99,,,0.00,weatherlink.com 1.10,2013-04-03 16:07:00,
2013-04-03 12:22:00,54.3,26.0,30.28,NE,53,0.0,-999.0,33,-99.99,,,0.00,weatherlink.com 1.10,2013-04-03 16:22:00,
2013-04-03 12:37:00,54.8,24.0,30.28,NE,49,3.0,-999.0,30,-99.99,,,0.00,weatherlink.com 1.10,2013-04-03 16:37:00,
2013-04-03 12:52:00,55.1,25.0,30.27,ENE,77,0.0,-999.0,31,-99.99,,,0.00,weatherlink.com 1.10,2013-04-03 16:52:00,
2013-04-03 13:07:00,56.5,27.0,30.27,NNE,24,0.0,-999.0,32,-99.99,,,0.00,weatherlink.com 1.10,2013-04-03 17:07:00,
2013-04-03 13:22:00,57.2,28.0,30.26,ENE,72,0.0,-999.0,33,-99.99,,,0.00,weatherlink.com 1.10,2013-04-03 17:22:00,
2013-04-03 13:37:00,57.6,28.0,30.25,ESE,109,0.0,-999.0,32,-99.99,,,0.00,weatherlink.com 1.10,2013-04-03 17:37:00,
2013-04-03 13:52:00,58.3,26.0,30.25,NNW,345,1.0,-999.0,29,-99.99,,,0.00,weatherlink.com 1.10,2013-04-03 17:52:00,
2013-04-03 14:07:00,58.2,28.0,30.24,NNE,15,0.0,-999.0,31,-99.99,,,0.00,weatherlink.com 1.10,2013-04-03 18:07:00,
2013-04-03 14:23:00,59.1,28.0,30.23,ENE,61,2.0,-999.0,31,-99.99,,,0.00,weatherlink.com 1.10,2013-04-03 18:23:00,
2013-04-03 14:37:00,59.1,28.0,30.24,ESE,119,0.0,-999.0,30,-99.99,,,0.00,weatherlink.com 1.10,2013-04-03 18:37:00,
2013-04-03 14:52:00,58.5,27.0,30.23,East,88,2.0,-999.0,30,-99.99,,,0.00,weatherlink.com 1.10,2013-04-03 18:52:00,
2013-04-03 15:07:00,58.5,27.0,30.24,ESE,104,0.0,-999.0,30,-99.99,,,0.00,weatherlink.com 1.10,2013-04-03 19:07:00,
2013-04-03 15:22:00,58.8,29.0,30.24,SW,218,0.0,-999.0,32,-99.99,,,0.00,weatherlink.com 1.10,2013-04-03 19:22:00,
2013-04-03 15:37:00,58.6,27.0,30.24,East,95,0.0,-999.0,30,-99.99,,,0.00,weatherlink.com 1.10,2013-04-03 19:37:00,
2013-04-03 15:52:00,58.5,27.0,30.23,SE,124,0.0,-999.0,30,-99.99,,,0.00,weatherlink.com 1.10,2013-04-03 19:52:00,
2013-04-03 16:07:00,58.6,27.0,30.23,East,98,0.0,-999.0,30,-99.99,,,0.00,weatherlink.com 1.10,2013-04-03 20:07:00,
2013-04-03 16:22:00,58.6,27.0,30.24,East,92,0.0,-999.0,30,-99.99,,,0.00,weatherlink.com 1.10,2013-04-03 20:22:00,
2013-04-03 16:37:00,58.2,29.0,30.24,ESE,108,0.0,-999.0,33,-99.99,,,0.00,weatherlink.com 1.10,2013-04-03 20:37:00,
2013-04-03 16:52:00,57.6,28.0,30.24,ESE,117,0.0,-999.0,32,-99.99,,,0.00,weatherlink.com 1.10,2013-04-03 20:52:00,
2013-04-03 17:07:00,57.3,29.0,30.23,ESE,103,0.0,-999.0,34,-99.99,,,0.00,weatherlink.com 1.10,2013-04-03 21:07:00,
2013-04-03 17:22:00,57.2,28.0,30.23,East,90,0.0,-999.0,33,-99.99,,,0.00,weatherlink.com 1.10,2013-04-03 21:22:00,
2013-04-03 17:37:00,57.2,28.0,30.23,East,90,0.0,-999.0,33,-99.99,,,0.00,weatherlink.com 1.10,2013-04-03 21:37:00,
2013-04-03 17:52:00,56.8,30.0,30.23,ESE,107,0.0,-999.0,36,-99.99,,,0.00,weatherlink.com 1.10,2013-04-03 21:52:00,
2013-04-03 18:07:00,56.6,29.0,30.23,ESE,107,0.0,-999.0,35,-99.99,,,0.00,weatherlink.com 1.10,2013-04-03 22:07:00,
2013-04-03 18:22:00,56.2,29.0,30.23,SE,128,1.0,-999.0,35,-99.99,,,0.00,weatherlink.com 1.10,2013-04-03 22:22:00,
2013-04-03 18:37:00,55.5,28.0,30.23,ESE,121,0.0,-999.0,35,-99.99,,,0.00,weatherlink.com 1.10,2013-04-03 22:37:00,
2013-04-03 18:52:00,54.8,29.0,30.23,ESE,112,0.0,-999.0,38,-99.99,,,0.00,weatherlink.com 1.10,2013-04-03 22:52:00,
2013-04-03 19:07:00,54.2,29.0,30.23,ESE,114,0.0,-999.0,38,-99.99,,,0.00,weatherlink.com 1.10,2013-04-03 23:07:00,
2013-04-03 19:22:00,53.6,30.0,30.24,ESE,113,0.0,-999.0,40,-99.99,,,0.00,weatherlink.com 1.10,2013-04-03 23:22:00,
2013-04-03 19:37:00,53.1,29.0,30.24,ESE,112,0.0,-999.0,40,-99.99,,,0.00,weatherlink.com 1.10,2013-04-03 23:37:00,
2013-04-03 20:07:00,51.7,30.0,30.25,ESE,112,0.0,-999.0,43,-99.99,,,0.00,weatherlink.com 1.10,2013-04-04 00:07:00,
2013-04-03 20:22:00,51.2,30.0,30.25,ESE,112,0.0,-999.0,44,-99.99,,,0.00,weatherlink.com 1.10,2013-04-04 00:22:00,
2013-04-03 20:37:00,50.8,28.0,30.26,ESE,112,0.0,-999.0,42,-99.99,,,0.00,weatherlink.com 1.10,2013-04-04 00:37:00,
2013-04-03 20:52:00,50.3,29.0,30.28,ESE,112,0.0,-999.0,44,-99.99,,,0.00,weatherlink.com 1.10,2013-04-04 00:52:00,
2013-04-03 21:07:00,49.9,30.0,30.28,ESE,112,0.0,-999.0,47,-99.99,,,0.00,weatherlink.com 1.10,2013-04-04 01:07:00,
2013-04-03 21:22:00,49.5,31.0,30.28,ESE,112,0.0,-999.0,50,-99.99,,,0.00,weatherlink.com 1.10,2013-04-04 01:22:00,
2013-04-03 21:37:00,49.1,31.0,30.29,ESE,112,0.0,-999.0,50,-99.99,,,0.00,weatherlink.com 1.10,2013-04-04 01:37:00,
2013-04-03 21:52:00,48.9,30.0,30.29,ESE,112,0.0,-999.0,49,-99.99,,,0.00,weatherlink.com 1.10,2013-04-04 01:52:00,
2013-04-03 22:07:00,48.7,30.0,30.29,East,94,2.0,-999.0,48,-99.99,,,0.00,weatherlink.com 1.10,2013-04-04 02:07:00,
2013-04-03 22:22:00,48.7,29.0,30.30,East,90,0.0,-999.0,47,-99.99,,,0.00,weatherlink.com 1.10,2013-04-04 02:22:00,
2013-04-03 22:37:00,48.7,31.0,30.31,East,90,0.0,-999.0,50,-99.99,,,0.00,weatherlink.com 1.10,2013-04-04 02:37:00,
2013-04-03 22:52:00,48.6,31.0,30.31,East,90,0.0,-999.0,50,-99.99,,,0.00,weatherlink.com 1.10,2013-04-04 02:52:00,
2013-04-03 23:22:00,48.1,30.0,30.31,East,90,0.0,-999.0,49,-99.99,,,0.00,weatherlink.com 1.10,2013-04-04 03:22:00,
2013-04-03 23:37:00,47.9,30.0,30.31,East,90,0.0,-999.0,50,-99.99,,,0.00,weatherlink.com 1.10,2013-04-04 03:37:00,
2013-04-03 23:52:00,47.7,29.0,30.30,ESE,106,0.0,-999.0,48,-99.99,,,0.00,weatherlink.com 1.10,2013-04-04 03:52:00,